Weather History for KIER - October, 2012

Change the Weather History Date:

Saturday, October 6, 2012

  Actual Average Record
Temperature  
Mean Temperature 59 °F -  
Max Temperature 67 °F 83 °F 97 °F (1954)
Min Temperature 50 °F 58 °F 35 °F (1932)
Degree Days  
Heating Degree Days 6    
Growing Degree Days 9 (Base 50)    
Moisture  
Dew Point 56 °F    
Average Humidity 88    
Maximum Humidity 100    
Minimum Humidity 80    
Precipitation  
Precipitation 0.00 in - - ()
Sea Level Pressure  
Sea Level Pressure 30.08 in    
Wind  
Wind Speed 6 mph (NNE)    
Max Wind Speed 14 mph    
Max Gust Speed 17 mph    
Visibility 9 miles    
Events      
Averages and records for this station are not official NWS values.
T = Trace of Precipitation, MM = Missing Value Source: NWS Daily Summary

Daily Weather History Graph

Daily Weather History Graph

Search for Another Location

Airport or City:

Trip Planner

Search our weather history database for the weather conditions in past years. The results will help you decide how hot, cold, wet, or windy it might be!

Date:

Astronomy

Oct. 06, 2012 Rise Set
Actual Time 7:09 AM CDT 6:50 PM CDT
Civil Twilight 6:45 AM CDT 7:14 PM CDT
Nautical Twilight 6:17 AM CDT 7:42 PM CDT
Astronomical Twilight 5:48 AM CDT 8:11 PM CDT
Moon 11:22 PM CDT (10/6) 12:48 PM CDT (10/6)
Length of Visible Light 12h 29m
Length of Day
11h 40m
Waning Gibbous, 65% of the Moon is Illuminated
Oct 6
Waning Gibbous
Oct 8
Last Quarter
Oct 15
New
Oct 21
First Quarter
Oct 29
Full

Hourly Weather History & Observations

Time (CDT) Temp. Dew Point Humidity Pressure Visibility Wind Dir Wind Speed Gust Speed Precip Events Conditions
12:15 AM 65.8 °F 65.7 °F 99% 30.02 in 5.0 mi Calm Calm - N/A   Clear
12:35 AM 66.2 °F 66.2 °F 100% 30.02 in 5.0 mi Calm Calm - N/A   Clear
12:55 AM 65.8 °F 65.7 °F 99% 30.01 in 7.0 mi Calm Calm - N/A   Clear
1:15 AM 65.5 °F 65.5 °F 100% 30.01 in 7.0 mi Calm Calm - N/A   Clear
3:15 AM 66.7 °F 66.6 °F 99% 30.02 in 7.0 mi NW 5.8 mph - N/A   Clear
3:35 AM 66.7 °F 66.2 °F 98% 30.01 in 7.0 mi Calm Calm - N/A   Clear
3:55 AM 66.6 °F 66.0 °F 98% 30.01 in 7.0 mi WNW 3.5 mph - N/A   Clear
4:35 AM 67.6 °F 66.6 °F 96% 30.02 in 7.0 mi North 6.9 mph - N/A   Clear
4:55 AM 67.5 °F 66.4 °F 96% 30.03 in 7.0 mi North 8.1 mph - N/A   Mostly Cloudy
5:15 AM 67.1 °F 66.6 °F 98% 30.03 in 4.0 mi NNE 6.9 mph - N/A   Overcast
5:35 AM 67.6 °F 67.1 °F 98% 30.03 in 5.0 mi NE 6.9 mph - N/A   Overcast
5:55 AM 66.2 °F 64.4 °F 94% 30.04 in 5.0 mi NE 11.5 mph - N/A   Overcast
6:15 AM 63.5 °F 62.1 °F 95% 30.06 in 7.0 mi NNE 11.5 mph - N/A   Overcast
6:35 AM 62.1 °F 60.6 °F 95% 30.07 in 7.0 mi North 9.2 mph - N/A   Overcast
6:55 AM 61.3 °F 59.4 °F 93% 30.07 in 10.0 mi NNE 8.1 mph - N/A   Overcast
7:15 AM 60.3 °F 58.1 °F 93% 30.08 in 7.0 mi NNE 10.4 mph - N/A   Overcast
7:35 AM 59.9 °F 57.6 °F 92% 30.09 in 10.0 mi NNE 6.9 mph - N/A   Overcast
7:55 AM 59.9 °F 57.2 °F 91% 30.10 in 10.0 mi NNE 8.1 mph - N/A   Overcast
8:15 AM 59.4 °F 56.5 °F 90% 30.10 in 10.0 mi NNE 8.1 mph - N/A   Overcast
8:35 AM 59.2 °F 56.3 °F 90% 30.11 in 10.0 mi NE 8.1 mph 16.1 mph N/A   Overcast
10:15 AM 58.5 °F 55.6 °F 90% 30.13 in 10.0 mi NNE 8.1 mph - N/A   Overcast
12:35 PM 59.2 °F 53.6 °F 82% 30.11 in 10.0 mi NNE 8.1 mph - N/A   Overcast
12:55 PM 59.4 °F 53.4 °F 81% 30.11 in 10.0 mi North 6.9 mph - N/A   Overcast
1:15 PM 59.9 °F 53.6 °F 80% 30.10 in 10.0 mi NE 9.2 mph - N/A   Overcast
1:35 PM 59.5 °F 53.4 °F 80% 30.10 in 10.0 mi NNE 5.8 mph - N/A   Overcast
1:55 PM 59.4 °F 53.4 °F 81% 30.09 in 10.0 mi NNE 8.1 mph - N/A   Overcast
2:15 PM 59.4 °F 53.6 °F 81% 30.09 in 10.0 mi NE 8.1 mph - N/A   Overcast
2:35 PM 60.1 °F 53.8 °F 80% 30.08 in 10.0 mi NNE 9.2 mph - N/A   Overcast
2:55 PM 59.4 °F 53.6 °F 81% 30.08 in 10.0 mi North 9.2 mph - N/A   Overcast
3:15 PM 58.1 °F 52.7 °F 82% 30.08 in 10.0 mi North 10.4 mph - N/A   Overcast
3:35 PM 58.1 °F 52.7 °F 82% 30.08 in 10.0 mi North 10.4 mph - N/A   Overcast
3:55 PM 58.5 °F 52.3 °F 80% 30.09 in 10.0 mi NNE 8.1 mph - N/A   Overcast
4:15 PM 57.6 °F 52.0 °F 82% 30.09 in 10.0 mi North 10.4 mph - N/A   Overcast
4:55 PM 56.5 °F 51.4 °F 83% 30.09 in 10.0 mi North 8.1 mph - N/A   Overcast
5:15 PM 55.9 °F 51.1 °F 84% 30.09 in 10.0 mi NNE 10.4 mph - N/A   Overcast
5:35 PM 55.4 °F 50.5 °F 84% 30.09 in 10.0 mi NNE 10.4 mph - N/A   Overcast
6:15 PM 55.4 °F 50.2 °F 83% 30.10 in 10.0 mi North 8.1 mph - N/A   Overcast
6:35 PM 55.0 °F 50.0 °F 83% 30.10 in 10.0 mi NNE 9.2 mph - N/A   Overcast
7:15 PM 54.5 °F 49.5 °F 83% 30.11 in 10.0 mi NNE 8.1 mph - N/A   Overcast
7:35 PM 54.5 °F 49.5 °F 83% 30.11 in 10.0 mi NNE 6.9 mph - N/A   Overcast
7:55 PM 54.3 °F 49.3 °F 83% 30.12 in 10.0 mi North 11.5 mph - N/A   Overcast
8:15 PM 54.0 °F 48.6 °F 82% 30.14 in 10.0 mi North 11.5 mph - N/A   Overcast
8:35 PM 53.6 °F 48.6 °F 83% 30.14 in 10.0 mi North 13.8 mph - N/A   Overcast
9:35 PM 52.2 °F 46.6 °F 81% 30.16 in 10.0 mi NNE 8.1 mph - N/A   Overcast
9:55 PM 52.0 °F 46.4 °F 81% 30.16 in 10.0 mi NNE 8.1 mph - N/A   Overcast
10:15 PM 51.4 °F 45.7 °F 81% 30.17 in 10.0 mi NNE 11.5 mph 17.3 mph N/A   Overcast
11:55 PM 50.4 °F 44.8 °F 81% 30.17 in 10.0 mi NNE 10.4 mph - N/A   Overcast